User: anonymous   Login
Location: Napier
(39.4830°S, 176.9170°E)
Time: 11:42:21
(UTC+13:00)
Language:

ISS - Orbit

View from above orbital plane
View from above orbital plane
View from above satellite
View from above satellite

Ground track
Ground track

The orbit data is extracted from the following two-line orbital elements,

1 25544U 98067A   19327.55726656  .00016717  00000-0  10270-3 0  9034
2 25544  51.6406 291.1531 0006693 314.7253  45.3352 15.50057287 39975
Epoch (UTC): 23 November 2019 13:22:27
Eccentricity: 0.0006693
inclination: 51.6406°
perigee height: 412 km
apogee height: 421 km
right ascension of ascending node: 291.1531°
argument of perigee: 314.7253°
revolutions per day: 15.50057287
mean anomaly at epoch: 45.3352°
orbit number at epoch: 3997

The dashed part of the orbit path shows where the satellite is in the earth's shadow,  

DLR